Starlink 11149

operational
NORAD ID: 60041 Int'l Des: 2024-112 Owner: SPXS Country: US Constellation: starlink
LEOCIRCULAR

About Starlink 11149

Description loading...

Live Position

Loading 3D Globe...

Upcoming Passes

Altitude History

Altitude vs Time

uPlot chart will show altitude changes over time

Two-Line Element Set

1 60041U 24112D 25305.93591425 -.00000255 00000-0 27621-5 0 9990
2 60041 53.1601 176.2112 0001589 76.1850 283.9345 15.69715516 80917
Epoch: Nov 1, 2025 • Age: 24 hours

Current Status

Altitude 378.8 km
Velocity 7.68 km/s
Sub-Earth Point -52.22°S, 76.29°E
Launch Date Jun 8, 2024
Age 1.4 years
Type internet

Technical Details

Classification Payload
Mass 960.00 kg
Dry Mass 910.00 kg
Total Mass 960.00 kg
Length 0.30 m
Diameter 4.10 m
Span 29.00 m
Shape Box + pan
Manufacturer SPXS
Bus Type Starlink V2MD
Phase Status In Orbit
Owner/State SPXS/US

Large Constellations

Loading constellations...